Radiation Dose at Monitoring Post of Fukushima Daini Nuclear Power Station
Date,Time,MP-1(microSv/h),MP-2(microSv/h),MP-3(microSv/h),MP-4(microSv/h),MP-5(microSv/h),MP-6(microSv/h),MP-7(microSv/h),Wind Direction,Wind Velocity(m/s),Rain
2016/01/14,00:00,0.471,0.274,0.498,0.451,0.424,0.226,0.199,west-northwest,3.7,No
2016/01/14,00:10,0.471,0.274,0.496,0.452,0.423,0.225,0.199,west-northwest,3.6,No
2016/01/14,00:20,0.471,0.273,0.496,0.452,0.426,0.226,0.199,northwest,2.7,No
2016/01/14,00:30,0.471,0.275,0.498,0.451,0.425,0.226,0.199,northwest,2.3,No
2016/01/14,00:40,0.471,0.274,0.497,0.449,0.424,0.225,0.199,north-northwest,3.1,No
2016/01/14,00:50,0.471,0.274,0.496,0.454,0.424,0.226,0.199,northwest,3.6,No
2016/01/14,01:00,0.472,0.275,0.497,0.449,0.424,0.225,0.199,northwest,6.0,No
2016/01/14,01:10,0.471,0.275,0.497,0.452,0.423,0.225,0.198,north-northwest,3.8,No
2016/01/14,01:20,0.471,0.274,0.499,0.452,0.424,0.225,0.198,northwest,3.0,No
2016/01/14,01:30,0.472,0.274,0.497,0.451,0.425,0.226,0.198,northwest,4.0,No
2016/01/14,01:40,0.471,0.273,0.496,0.451,0.426,0.225,0.199,west-northwest,4.7,No
2016/01/14,01:50,0.470,0.274,0.498,0.452,0.426,0.226,0.198,northwest,3.8,No
2016/01/14,02:00,0.471,0.274,0.500,0.450,0.424,0.226,0.199,northwest,4.2,No
2016/01/14,02:10,0.471,0.275,0.498,0.452,0.423,0.225,0.199,west-northwest,5.5,No
2016/01/14,02:20,0.471,0.274,0.496,0.452,0.424,0.224,0.199,west,6.2,No
2016/01/14,02:30,0.472,0.274,0.496,0.453,0.425,0.225,0.198,west,5.0,No
2016/01/14,02:40,0.472,0.275,0.498,0.451,0.425,0.226,0.199,west,3.7,No
2016/01/14,02:50,0.472,0.274,0.497,0.452,0.424,0.226,0.199,west,3.7,No
2016/01/14,03:00,0.470,0.273,0.496,0.451,0.423,0.226,0.199,west-northwest,6.3,No
2016/01/14,03:10,0.472,0.273,0.496,0.450,0.423,0.225,0.198,west-northwest,4.4,No
2016/01/14,03:20,0.471,0.274,0.497,0.453,0.425,0.226,0.198,west-northwest,3.5,No
2016/01/14,03:30,0.471,0.274,0.496,0.450,0.424,0.225,0.198,west-southwest,2.2,No
2016/01/14,03:40,0.472,0.274,0.496,0.452,0.424,0.226,0.198,-,CALM,No
2016/01/14,03:50,0.471,0.274,0.497,0.453,0.423,0.226,0.198,southeast,1.2,No
2016/01/14,04:00,0.470,0.274,0.496,0.452,0.425,0.225,0.198,southeast,2.7,No
2016/01/14,04:10,0.470,0.273,0.499,0.450,0.425,0.224,0.199,south-southeast,3.7,No
2016/01/14,04:20,0.471,0.273,0.498,0.451,0.425,0.224,0.198,south-southeast,3.7,No
2016/01/14,04:30,0.471,0.274,0.495,0.452,0.424,0.225,0.198,south,2.9,No
2016/01/14,04:40,0.469,0.274,0.498,0.450,0.424,0.224,0.198,south-southeast,1.4,No
2016/01/14,04:50,0.471,0.273,0.498,0.452,0.425,0.225,0.199,south-southeast,1.9,No
2016/01/14,05:00,0.471,0.272,0.497,0.451,0.424,0.225,0.198,south,0.6,No
2016/01/14,05:10,0.470,0.273,0.496,0.451,0.424,0.225,0.197,north,1.3,No
2016/01/14,05:20,0.471,0.274,0.499,0.453,0.423,0.225,0.197,northwest,1.7,No
2016/01/14,05:30,0.470,0.273,0.498,0.452,0.423,0.225,0.198,west-northwest,1.8,No
2016/01/14,05:40,0.471,0.273,0.496,0.451,0.426,0.226,0.198,northwest,3.0,No
2016/01/14,05:50,0.471,0.273,0.497,0.452,0.424,0.224,0.198,west-northwest,4.2,No
2016/01/14,06:00,0.469,0.273,0.498,0.451,0.423,0.225,0.198,west,5.3,No
2016/01/14,06:10,0.471,0.274,0.497,0.452,0.423,0.225,0.198,west-northwest,5.0,No
2016/01/14,06:20,0.471,0.274,0.497,0.451,0.424,0.225,0.198,west-northwest,4.2,No
2016/01/14,06:30,0.469,0.273,0.496,0.450,0.422,0.224,0.199,north-northwest,1.3,No
2016/01/14,06:40,0.473,0.273,0.496,0.452,0.423,0.225,0.198,northeast,1.0,No
2016/01/14,06:50,0.470,0.272,0.499,0.451,0.424,0.225,0.198,north,1.0,No
2016/01/14,07:00,0.471,0.272,0.497,0.450,0.425,0.225,0.197,north-northeast,2.3,No
2016/01/14,07:10,0.471,0.275,0.498,0.450,0.425,0.225,0.199,north-northwest,3.3,No
2016/01/14,07:20,0.471,0.275,0.498,0.450,0.423,0.225,0.198,northwest,2.8,No
2016/01/14,07:30,0.472,0.272,0.498,0.451,0.422,0.224,0.198,northwest,1.2,No
2016/01/14,07:40,0.470,0.272,0.497,0.451,0.422,0.225,0.197,north-northwest,1.8,No
2016/01/14,07:50,0.469,0.273,0.496,0.452,0.424,0.224,0.198,northwest,1.0,No
2016/01/14,08:00,0.470,0.273,0.498,0.449,0.423,0.224,0.197,north-northwest,1.3,No
2016/01/14,08:10,0.470,0.274,0.497,0.449,0.423,0.225,0.197,north,1.5,No
2016/01/14,08:20,0.470,0.272,0.497,0.449,0.422,0.224,0.198,north-northeast,2.9,No
2016/01/14,08:30,0.470,0.272,0.496,0.449,0.425,0.222,0.198,north-northwest,3.4,No
2016/01/14,08:40,0.472,0.274,0.497,0.451,0.425,0.223,0.198,north-northwest,3.8,No
2016/01/14,08:50,0.470,0.273,0.497,0.450,0.423,0.224,0.198,north-northwest,3.9,No
2016/01/14,09:00,0.471,0.274,0.496,0.447,0.423,0.224,0.197,north-northwest,3.6,No
2016/01/14,09:10,0.471,0.273,0.495,0.452,0.425,0.224,0.197,north,3.9,No
2016/01/14,09:20,0.472,0.274,0.496,0.449,0.423,0.223,0.198,north,2.7,No
2016/01/14,09:30,0.470,0.274,0.496,0.451,0.421,0.225,0.198,north-northeast,3.1,No
2016/01/14,09:40,0.471,0.272,0.496,0.449,0.425,0.224,0.199,north-northeast,4.0,No
2016/01/14,09:50,0.473,0.273,0.497,0.449,0.423,0.223,0.197,northeast,4.9,No
2016/01/14,10:00,0.472,0.274,0.500,0.449,0.423,0.225,0.198,northeast,5.6,No
2016/01/14,10:10,0.470,0.272,0.495,0.450,0.425,0.224,0.199,northeast,5.3,No
2016/01/14,10:20,0.474,0.274,0.497,0.452,0.421,0.225,0.198,east-northeast,5.1,No
2016/01/14,10:30,0.470,0.273,0.498,0.449,0.425,0.226,0.199,northeast,4.5,No
2016/01/14,10:40,0.471,0.272,0.495,0.453,0.421,0.224,0.198,northeast,4.5,No
2016/01/14,10:50,0.469,0.273,0.495,0.451,0.423,0.225,0.198,northeast,4.4,No
2016/01/14,11:00,0.471,0.272,0.497,0.451,0.425,0.225,0.199,north-northeast,4.4,No
2016/01/14,11:10,0.472,0.273,0.495,0.451,0.423,0.226,0.199,northeast,4.5,No
2016/01/14,11:20,0.470,0.273,0.496,0.449,0.426,0.225,0.199,northeast,4.3,No
2016/01/14,11:30,0.474,0.272,0.497,0.453,0.424,0.226,0.200,northeast,4.2,No
2016/01/14,11:40,0.472,0.274,0.493,0.450,0.426,0.225,0.198,northeast,3.5,No
2016/01/14,11:50,0.471,0.273,0.498,0.454,0.427,0.226,0.198,northeast,5.9,No
2016/01/14,12:00,0.474,0.273,0.494,0.450,0.424,0.226,0.200,northeast,7.1,No
2016/01/14,12:10,0.472,0.272,0.498,0.452,0.428,0.225,0.199,northeast,6.3,No
2016/01/14,12:20,0.472,0.274,0.492,0.451,0.423,0.226,0.199,northeast,6.2,No
2016/01/14,12:30,0.471,0.274,0.498,0.452,0.426,0.225,0.198,east-northeast,5.5,No
2016/01/14,12:40,0.473,0.273,0.495,0.449,0.425,0.225,0.199,east,6.5,No
2016/01/14,12:50,0.473,0.274,0.496,0.451,0.427,0.226,0.199,east,6.5,No
2016/01/14,13:00,0.470,0.275,0.495,0.453,0.426,0.224,0.199,east,6.5,No
2016/01/14,13:10,0.472,0.273,0.496,0.449,0.425,0.225,0.199,east-northeast,8.2,No
2016/01/14,13:20,0.472,0.274,0.495,0.454,0.429,0.224,0.199,northeast,8.9,No
2016/01/14,13:30,0.472,0.274,0.497,0.450,0.425,0.225,0.199,east-northeast,8.2,No
2016/01/14,13:40,0.475,0.273,0.499,0.454,0.426,0.225,0.199,east-northeast,8.4,No
2016/01/14,13:50,0.474,0.274,0.498,0.452,0.427,0.224,0.199,northeast,8.4,No
2016/01/14,14:00,0.475,0.276,0.496,0.451,0.425,0.224,0.200,east-northeast,6.7,No
2016/01/14,14:10,0.475,0.273,0.499,0.455,0.427,0.225,0.201,northeast,7.0,No
2016/01/14,14:20,0.474,0.273,0.495,0.452,0.427,0.225,0.200,northeast,9.3,Yes
2016/01/14,14:30,0.474,0.274,0.499,0.451,0.425,0.225,0.199,north-northeast,10.3,Yes
2016/01/14,14:40,0.475,0.274,0.499,0.454,0.425,0.226,0.198,northeast,7.1,Yes
2016/01/14,14:50,0.471,0.275,0.496,0.452,0.428,0.226,0.200,northeast,5.7,No
2016/01/14,15:00,0.474,0.275,0.499,0.452,0.425,0.225,0.200,northeast,5.7,Yes
2016/01/14,15:10,0.475,0.276,0.499,0.453,0.425,0.226,0.201,northeast,6.5,Yes
2016/01/14,15:20,0.473,0.276,0.497,0.453,0.427,0.226,0.200,northeast,5.0,Yes
2016/01/14,15:30,0.474,0.275,0.499,0.454,0.425,0.225,0.200,northeast,6.5,Yes
2016/01/14,15:40,0.475,0.275,0.500,0.454,0.425,0.227,0.200,northeast,7.1,Yes
2016/01/14,15:50,0.473,0.277,0.498,0.453,0.427,0.226,0.200,north-northeast,5.4,No
2016/01/14,16:00,0.474,0.276,0.497,0.453,0.426,0.227,0.200,north-northeast,6.4,Yes
2016/01/14,16:10,0.474,0.274,0.498,0.454,0.424,0.226,0.200,north-northeast,4.6,Yes
2016/01/14,16:20,0.474,0.275,0.496,0.451,0.426,0.226,0.200,north,4.0,Yes
2016/01/14,16:30,0.474,0.275,0.497,0.452,0.427,0.226,0.199,north,2.1,Yes
2016/01/14,16:40,0.474,0.274,0.499,0.453,0.426,0.225,0.201,north-northeast,3.9,Yes
2016/01/14,16:50,0.474,0.274,0.497,0.451,0.424,0.227,0.200,north-northeast,6.3,No
2016/01/14,17:00,0.473,0.276,0.496,0.451,0.425,0.226,0.200,northeast,6.0,No
2016/01/14,17:10,0.473,0.274,0.499,0.453,0.426,0.225,0.200,northeast,4.6,No
2016/01/14,17:20,0.474,0.274,0.497,0.452,0.426,0.224,0.199,northeast,7.0,No
2016/01/14,17:30,0.473,0.274,0.498,0.451,0.425,0.226,0.199,northeast,6.8,No
2016/01/14,17:40,0.473,0.275,0.499,0.453,0.426,0.226,0.200,north-northeast,3.6,Yes
2016/01/14,17:50,0.475,0.275,0.497,0.454,0.425,0.226,0.199,north,3.6,No
2016/01/14,18:00,0.474,0.274,0.497,0.452,0.425,0.226,0.199,north,1.8,No
2016/01/14,18:10,0.471,0.275,0.497,0.452,0.426,0.225,0.200,-,CALM,No
2016/01/14,18:20,0.476,0.274,0.499,0.453,0.426,0.226,0.200,north-northeast,2.0,No
2016/01/14,18:30,0.474,0.274,0.496,0.452,0.423,0.226,0.199,north-northeast,3.2,No
2016/01/14,18:40,0.473,0.274,0.499,0.453,0.426,0.226,0.201,north,5.4,No
2016/01/14,18:50,0.474,0.275,0.498,0.452,0.425,0.225,0.198,north,5.4,No
2016/01/14,19:00,0.472,0.274,0.497,0.452,0.424,0.225,0.199,north,6.0,No
2016/01/14,19:10,0.474,0.274,0.499,0.453,0.426,0.225,0.199,north,7.4,No
2016/01/14,19:20,0.474,0.273,0.498,0.454,0.426,0.226,0.200,north,5.9,No
2016/01/14,19:30,0.474,0.274,0.497,0.454,0.424,0.225,0.199,north,5.9,No
2016/01/14,19:40,0.474,0.275,0.496,0.451,0.426,0.225,0.199,north,5.3,No
2016/01/14,19:50,0.475,0.275,0.502,0.454,0.425,0.225,0.199,north,5.4,Yes
2016/01/14,20:00,0.473,0.275,0.497,0.453,0.428,0.226,0.199,north,4.8,Yes
2016/01/14,20:10,0.475,0.276,0.497,0.453,0.426,0.227,0.200,north,4.6,Yes
2016/01/14,20:20,0.475,0.275,0.499,0.453,0.426,0.227,0.201,north,5.3,Yes
2016/01/14,20:30,0.477,0.276,0.499,0.455,0.426,0.227,0.202,north,5.8,Yes
2016/01/14,20:40,0.476,0.275,0.497,0.454,0.427,0.228,0.201,north,5.3,No
2016/01/14,20:50,0.474,0.276,0.500,0.455,0.427,0.226,0.202,north,5.0,No
2016/01/14,21:00,0.474,0.275,0.500,0.455,0.427,0.227,0.201,north,4.9,No
2016/01/14,21:10,0.476,0.275,0.498,0.453,0.426,0.227,0.200,north,4.9,No
2016/01/14,21:20,0.474,0.274,0.496,0.452,0.427,0.225,0.199,north,4.2,No
2016/01/14,21:30,0.474,0.275,0.498,0.452,0.424,0.227,0.199,north,4.9,No
2016/01/14,21:40,0.473,0.275,0.498,0.452,0.424,0.226,0.200,north-northwest,4.7,No
2016/01/14,21:50,0.472,0.273,0.496,0.453,0.426,0.225,0.200,north-northwest,4.7,No
2016/01/14,22:00,0.475,0.274,0.497,0.451,0.424,0.227,0.200,north-northwest,5.4,No
2016/01/14,22:10,0.473,0.274,0.500,0.453,0.424,0.226,0.199,north-northwest,6.0,No
2016/01/14,22:20,0.472,0.276,0.497,0.453,0.424,0.226,0.199,north,5.9,No
2016/01/14,22:30,0.475,0.274,0.497,0.450,0.427,0.225,0.198,north-northwest,6.1,No
2016/01/14,22:40,0.474,0.274,0.498,0.452,0.427,0.226,0.199,north-northwest,7.0,Yes
2016/01/14,22:50,0.474,0.274,0.498,0.454,0.424,0.225,0.199,north-northwest,7.0,Yes
2016/01/14,23:00,0.473,0.275,0.499,0.453,0.423,0.225,0.200,north-northwest,7.7,Yes
2016/01/14,23:10,0.475,0.275,0.499,0.453,0.427,0.226,0.200,north-northwest,6.7,Yes
2016/01/14,23:20,0.474,0.275,0.498,0.453,0.426,0.225,0.199,north-northwest,7.8,No
2016/01/14,23:30,0.473,0.275,0.499,0.454,0.424,0.226,0.201,northwest,8.5,Yes
2016/01/14,23:40,0.474,0.276,0.497,0.453,0.425,0.227,0.200,northwest,7.8,Yes
2016/01/14,23:50,0.472,0.277,0.497,0.453,0.424,0.227,0.200,northwest,7.1,Yes
